| time (UTC) | temp F | wind direction | speed knots | gust knots | rain 1hr in | rain 24hr in | rain mn in | humidity % | barometer mb |
| 20260508063134 | 70 | 8 | 1.7 | 3.5 | 0.00 | 0.00 | 0.00 | 40 | 1016.8 |
| 20260508062631 | 71 | 8 | 1.7 | 3.5 | 0.00 | 0.00 | 0.00 | 40 | 1016.8 |
| 20260508062131 | 71 | 357 | 1.7 | 4.3 | 0.00 | 0.00 | 0.00 | 38 | 1016.8 |
| 20260508061633 | 72 | 356 | 2.6 | 5.2 | 0.00 | 0.00 | 0.00 | 37 | 1016.8 |
| 20260508061410 | 72 | 339 | 2.6 | 5.2 | 0.00 | 0.00 | 0.00 | 35 | 1016.8 |
| 20260508060627 | 72 | 347 | 0.9 | 4.3 | 0.00 | 0.00 | 0.00 | 35 | 1016.8 |
| 20260508060126 | 72 | 2 | 1.7 | 3.5 | 0.00 | 0.00 | 0.00 | 36 | 1016.8 |
| 20260508055620 | 73 | 2 | 1.7 | 3.5 | 0.00 | 0.00 | 0.00 | 35 | 1016.8 |
| 20260508055119 | 73 | 358 | 0.9 | 2.6 | 0.00 | 0.00 | 0.00 | 36 | 1016.7 |
| 20260508054616 | 74 | 22 | 1.7 | 4.3 | 0.00 | 0.00 | 0.00 | 33 | 1016.8 |
| 20260508054113 | 74 | 338 | 1.7 | 5.2 | 0.00 | 0.00 | 0.00 | 28 | 1016.8 |
| 20260508053619 | 74 | 316 | 1.7 | 5.2 | 0.00 | 0.00 | 0.00 | 29 | 1016.8 |
| 20260508053109 | 74 | 225 | 0.9 | 4.3 | 0.00 | 0.00 | 0.00 | 29 | 1016.9 |
| 20260508052623 | 75 | 292 | 0.9 | 4.3 | 0.00 | 0.00 | 0.00 | 29 | 1016.9 |
| 20260508052058 | 75 | 294 | 0.9 | 4.3 | 0.00 | 0.00 | 0.00 | 27 | 1016.9 |
| 20260508051345 | 75 | 310 | 0.9 | 5.2 | 0.00 | 0.00 | 0.00 | 27 | 1016.9 |
| 20260508050808 | 75 | 245 | 0.9 | 5.2 | 0.00 | 0.00 | 0.00 | 27 | 1016.9 |
| 20260508050535 | 75 | 340 | 1.7 | 5.2 | 0.00 | 0.00 | 0.00 | 27 | 1017.0 |
| 20260508045803 | 75 | 233 | 0.9 | 4.3 | 0.00 | 0.00 | 0.00 | 26 | 1017.1 |
| 20260508045301 | 75 | 312 | 0.9 | 4.3 | 0.00 | 0.00 | 0.00 | 27 | 1017.2 |
| 20260508044759 | 75 | 284 | 0.9 | 4.3 | 0.00 | 0.00 | 0.00 | 28 | 1017.3 |
| 20260508044302 | 75 | 294 | 1.7 | 3.5 | 0.00 | 0.00 | 0.00 | 26 | 1017.2 |
| 20260508044019 | 74 | 240 | 1.7 | 4.3 | 0.00 | 0.00 | 0.00 | 26 | 1017.1 |
| 20260508043247 | 74 | 260 | 0.9 | 7.8 | 0.00 | 0.00 | 0.00 | 27 | 1017.2 |
| 20260508042719 | 74 | 308 | 1.7 | 7.8 | 0.00 | 0.00 | 0.00 | 28 | 1017.2 |
| 20260508042200 | 74 | 247 | 2.6 | 8.7 | 0.00 | 0.00 | 0.00 | 27 | 1017.2 |
| 20260508041702 | 74 | 229 | 2.6 | 8.7 | 0.00 | 0.00 | 0.00 | 25 | 1017.2 |
| 20260508041131 | 74 | 224 | 1.7 | 7.0 | 0.00 | 0.00 | 0.00 | 24 | 1017.2 |
| 20260508040607 | 74 | 240 | 1.7 | 4.3 | 0.00 | 0.00 | 0.00 | 28 | 1017.3 |
| 20260508040052 | 74 | 240 | 1.7 | 4.3 | 0.00 | 0.00 | 0.00 | 27 | 1017.4 |
| 20260508035517 | 74 | 221 | 1.7 | 6.1 | 0.00 | 0.00 | 0.00 | 28 | 1017.4 |
| 20260508034944 | 74 | 246 | 1.7 | 6.1 | 0.00 | 0.00 | 0.00 | 28 | 1017.5 |
| 20260508034416 | 74 | 281 | 1.7 | 5.2 | 0.00 | 0.00 | 0.00 | 28 | 1017.6 |
| 20260508033851 | 74 | 242 | 1.7 | 4.3 | 0.00 | 0.00 | 0.00 | 29 | 1017.7 |
| 20260508033326 | 74 | 209 | 1.7 | 6.1 | 0.00 | 0.00 | 0.00 | 27 | 1017.7 |
| 20260508032801 | 74 | 314 | 1.7 | 5.2 | 0.00 | 0.00 | 0.00 | 28 | 1017.8 |
| 20260508032235 | 73 | 308 | 1.7 | 5.2 | 0.00 | 0.00 | 0.00 | 29 | 1017.8 |
| 20260508031725 | 73 | 216 | 1.7 | 6.1 | 0.00 | 0.00 | 0.00 | 27 | 1018.0 |
| 20260508031224 | 73 | 233 | 2.6 | 6.1 | 0.00 | 0.00 | 0.00 | 26 | 1018.1 |
| 20260508030724 | 73 | 308 | 2.6 | 7.8 | 0.00 | 0.00 | 0.00 | 28 | 1018.0 |
| 20260508030448 | 73 | 302 | 2.6 | 7.8 | 0.00 | 0.00 | 0.00 | 29 | 1018.0 |
| 20260508025728 | 73 | 293 | 2.6 | 7.0 | 0.00 | 0.00 | 0.00 | 30 | 1018.0 |
| 20260508025218 | 73 | 324 | 3.5 | 7.0 | 0.00 | 0.00 | 0.00 | 26 | 1018.1 |
| 20260508024717 | 73 | 28 | 2.6 | 7.0 | 0.00 | 0.00 | 0.00 | 26 | 1018.1 |
| 20260508024211 | 73 | 241 | 1.7 | 7.0 | 0.00 | 0.00 | 0.00 | 29 | 1018.2 |
| 20260508023709 | 73 | 237 | 1.7 | 7.0 | 0.00 | 0.00 | 0.00 | 31 | 1018.3 |
| 20260508023210 | 73 | 239 | 2.6 | 7.0 | 0.00 | 0.00 | 0.00 | 27 | 1018.4 |
| 20260508022709 | 73 | 311 | 1.7 | 6.1 | 0.00 | 0.00 | 0.00 | 28 | 1018.4 |
| 20260508022209 | 72 | 299 | 1.7 | 6.1 | 0.00 | 0.00 | 0.00 | 29 | 1018.5 |
| 20260508021711 | 72 | 249 | 1.7 | 6.1 | 0.00 | 0.00 | 0.00 | 29 | 1018.7 |
| 20260508021147 | 72 | 240 | 2.6 | 5.2 | 0.00 | 0.00 | 0.00 | 29 | 1018.9 |
| 20260508020619 | 72 | 218 | 1.7 | 5.2 | 0.00 | 0.00 | 0.00 | 30 | 1018.9 |
| 20260508020100 | 72 | 256 | 1.7 | 4.3 | 0.00 | 0.00 | 0.00 | 30 | 1019.1 |
| 20260508015520 | 72 | 314 | 1.7 | 4.3 | 0.00 | 0.00 | 0.00 | 31 | 1019.1 |
| 20260508014952 | 71 | 308 | 2.6 | 7.0 | 0.00 | 0.00 | 0.00 | 32 | 1019.2 |
| 20260508014435 | 71 | 335 | 2.6 | 7.0 | 0.00 | 0.00 | 0.00 | 31 | 1019.3 |
| 20260508013936 | 71 | 310 | 1.7 | 5.2 | 0.00 | 0.00 | 0.00 | 33 | 1019.5 |
| 20260508013412 | 71 | 310 | 1.7 | 5.2 | 0.00 | 0.00 | 0.00 | 31 | 1019.5 |
| 20260508013337 | 70 | 314 | 1.7 | 4.3 | 0.00 | 0.00 | 0.00 | 33 | 1019.6 |
| 20260508012319 | 70 | 324 | 1.7 | 4.3 | 0.00 | 0.00 | 0.00 | 36 | 1019.8 |
| 20260508011751 | 70 | 193 | 1.7 | 4.3 | 0.00 | 0.00 | 0.00 | 33 | 1019.8 |
| 20260508011222 | 70 | 311 | 1.7 | 4.3 | 0.00 | 0.00 | 0.00 | 35 | 1019.8 |
| 20260508010702 | 69 | 249 | 0.9 | 4.3 | 0.00 | 0.00 | 0.00 | 33 | 1019.7 |
| 20260508010205 | 69 | 294 | 0.9 | 4.3 | 0.00 | 0.00 | 0.00 | 34 | 1019.8 |
| 20260508005636 | 69 | 218 | 1.7 | 4.3 | 0.00 | 0.00 | 0.00 | 34 | 1020.0 |
| 20260508005110 | 68 | 334 | 1.7 | 4.3 | 0.00 | 0.00 | 0.00 | 35 | 1020.1 |
| 20260508004609 | 68 | 242 | 1.7 | 6.1 | 0.00 | 0.00 | 0.00 | 34 | 1020.2 |
| 20260508004105 | 68 | 222 | 1.7 | 6.1 | 0.00 | 0.00 | 0.00 | 34 | 1020.3 |
| 20260508003603 | 68 | 318 | 1.7 | 5.2 | 0.00 | 0.00 | 0.00 | 36 | 1020.3 |
| 20260508003103 | 68 | 243 | 1.7 | 5.2 | 0.00 | 0.00 | 0.00 | 35 | 1020.4 |
| 20260508002603 | 68 | 220 | 1.7 | 4.3 | 0.00 | 0.00 | 0.00 | 33 | 1020.5 |
| 20260508002101 | 68 | 320 | 0.9 | 4.3 | 0.00 | 0.00 | 0.00 | 35 | 1020.6 |
| 20260508001819 | 67 | 310 | 0.9 | 4.3 | 0.00 | 0.00 | 0.00 | 35 | 1020.6 |
| 20260508001057 | 67 | 285 | 1.7 | 4.3 | 0.00 | 0.00 | 0.00 | 38 | 1020.6 |
| 20260508000557 | 67 | 310 | 1.7 | 4.3 | 0.00 | 0.00 | 0.00 | 38 | 1020.8 |
| 20260508000106 | 66 | 226 | 1.7 | 3.5 | 0.00 | 0.00 | 0.00 | 39 | 1020.8 |
| 20260508000100 | 66 | 204 | 0.9 | 3.5 | 0.00 | 0.00 | 0.00 | 36 | 1020.8 |
| 20260507235055 | 65 | 270 | 1.7 | 7.0 | 0.00 | 0.00 | 0.00 | 40 | 1020.8 |
| 20260507234549 | 65 | 238 | 1.7 | 7.0 | 0.00 | 0.00 | 0.00 | 37 | 1021.0 |
| 20260507234048 | 65 | 236 | 2.6 | 7.0 | 0.00 | 0.00 | 0.00 | 39 | 1021.0 |
| 20260507233546 | 65 | 237 | 2.6 | 7.8 | 0.00 | 0.00 | 0.00 | 40 | 1021.0 |
| 20260507233047 | 64 | 247 | 1.7 | 7.8 | 0.00 | 0.00 | 0.00 | 39 | 1021.1 |
| 20260507232543 | 64 | 238 | 0.9 | 4.3 | 0.00 | 0.00 | 0.00 | 40 | 1021.0 |
| 20260507232043 | 64 | 232 | 1.7 | 7.0 | 0.00 | 0.00 | 0.00 | 43 | 1020.9 |
| 20260507231543 | 63 | 231 | 2.6 | 7.8 | 0.00 | 0.00 | 0.00 | 41 | 1021.0 |
| 20260507231043 | 63 | 198 | 1.7 | 7.8 | 0.00 | 0.00 | 0.00 | 42 | 1020.9 |
| 20260507230543 | 63 | 166 | 0.9 | 4.3 | 0.00 | 0.00 | 0.00 | 44 | 1020.8 |
| 20260507230053 | 62 | 158 | 0.9 | 4.3 | 0.00 | 0.00 | 0.00 | 45 | 1020.8 |
| 20260507225539 | 62 | 228 | 1.7 | 4.3 | 0.00 | 0.00 | 0.00 | 48 | 1020.8 |
| 20260507225038 | 61 | 250 | 1.7 | 4.3 | 0.00 | 0.00 | 0.00 | 49 | 1020.8 |
| 20260507224800 | 61 | 249 | 0.9 | 4.3 | 0.00 | 0.00 | 0.00 | 50 | 1020.9 |
| 20260507224251 | 60 | 248 | 0.9 | 4.3 | 0.00 | 0.00 | 0.00 | 51 | 1020.8 |
| 20260507223752 | 60 | 248 | 2.6 | 7.8 | 0.00 | 0.00 | 0.00 | 51 | 1020.9 |
| 20260507223031 | 59 | 240 | 2.6 | 7.8 | 0.00 | 0.00 | 0.00 | 51 | 1020.8 |
| 20260507222751 | 59 | 237 | 1.7 | 7.0 | 0.00 | 0.00 | 0.00 | 53 | 1020.8 |
| 20260507222234 | 58 | 190 | 1.7 | 7.0 | 0.00 | 0.00 | 0.00 | 54 | 1020.7 |
| 20260507221514 | 58 | 237 | 1.7 | 7.0 | 0.00 | 0.00 | 0.00 | 56 | 1020.6 |
| 20260507220956 | 57 | 249 | 1.7 | 6.1 | 0.00 | 0.00 | 0.00 | 56 | 1020.6 |
| 20260507220458 | 57 | 244 | 1.7 | 6.1 | 0.00 | 0.00 | 0.00 | 58 | 1020.4 |
| 20260507215954 | 56 | 239 | 0.9 | 5.2 | 0.00 | 0.00 | 0.00 | 60 | 1020.4 |
| 20260507215721 | 56 | 239 | 0.9 | 5.2 | 0.00 | 0.00 | 0.00 | 60 | 1020.5 |
| 20260507214954 | 55 | 240 | 1.7 | 4.3 | 0.00 | 0.00 | 0.00 | 61 | 1020.3 |
| 20260507214452 | 55 | 249 | 1.7 | 5.2 | 0.00 | 0.00 | 0.00 | 62 | 1020.3 |
| 20260507213953 | 54 | 237 | 1.7 | 5.2 | 0.00 | 0.00 | 0.00 | 63 | 1020.3 |
| 20260507213452 | 54 | 222 | 1.7 | 4.3 | 0.00 | 0.00 | 0.00 | 64 | 1020.3 |
| 20260507213444 | 53 | 245 | 1.7 | 5.2 | 0.00 | 0.00 | 0.00 | 65 | 1020.3 |
| 20260507212453 | 53 | 247 | 1.7 | 5.2 | 0.00 | 0.00 | 0.00 | 65 | 1020.3 |
| 20260507211953 | 53 | 247 | 1.7 | 5.2 | 0.00 | 0.00 | 0.00 | 65 | 1020.2 |
| 20260507211453 | 52 | 238 | 1.7 | 4.3 | 0.00 | 0.00 | 0.00 | 65 | 1020.2 |
| 20260507210954 | 52 | 210 | 1.7 | 6.1 | 0.00 | 0.00 | 0.00 | 65 | 1020.0 |
| 20260507210447 | 52 | 251 | 1.7 | 6.1 | 0.00 | 0.00 | 0.00 | 66 | 1020.1 |
| 20260507210209 | 52 | 166 | 1.7 | 6.1 | 0.00 | 0.00 | 0.00 | 66 | 1020.0 |
| 20260507205704 | 52 | 296 | 1.7 | 6.1 | 0.00 | 0.00 | 0.00 | 66 | 1019.9 |
| 20260507205206 | 52 | 242 | 0.9 | 5.2 | 0.00 | 0.00 | 0.00 | 67 | 1019.7 |
| 20260507204443 | 52 | 257 | 0.9 | 4.3 | 0.00 | 0.00 | 0.00 | 67 | 1019.7 |
| 20260507203942 | 52 | 233 | 0.9 | 3.5 | 0.00 | 0.00 | 0.00 | 68 | 1019.7 |
| 20260507203659 | 52 | 258 | 0.9 | 5.2 | 0.00 | 0.00 | 0.00 | 68 | 1019.7 |
| 20260507202936 | 52 | 258 | 0.9 | 5.2 | 0.00 | 0.00 | 0.00 | 68 | 1019.7 |
| 20260507202435 | 52 | 237 | 0.9 | 4.3 | 0.00 | 0.00 | 0.00 | 67 | 1019.6 |
| 20260507201933 | 52 | 206 | 1.7 | 6.1 | 0.00 | 0.00 | 0.00 | 67 | 1019.7 |
| 20260507201432 | 52 | 206 | 1.7 | 6.1 | 0.00 | 0.00 | 0.00 | 67 | 1019.5 |
| 20260507200925 | 52 | 224 | 1.7 | 5.2 | 0.00 | 0.00 | 0.00 | 67 | 1019.6 |
| 20260507200423 | 52 | 241 | 1.7 | 5.2 | 0.00 | 0.00 | 0.00 | 68 | 1019.5 |
| 20260507195920 | 52 | 226 | 1.7 | 3.5 | 0.00 | 0.00 | 0.00 | 68 | 1019.3 |
| 20260507195423 | 52 | 206 | 0.9 | 3.5 | 0.00 | 0.00 | 0.00 | 69 | 1019.3 |
| 20260507194911 | 52 | 226 | 0.9 | 4.3 | 0.00 | 0.00 | 0.00 | 68 | 1019.2 |
| 20260507194409 | 52 | 247 | 0.9 | 4.3 | 0.00 | 0.00 | 0.00 | 69 | 1019.1 |
| 20260507193907 | 53 | 243 | 0.9 | 4.3 | 0.00 | 0.00 | 0.00 | 69 | 1019.1 |
| 20260507193405 | 53 | 224 | 0.9 | 5.2 | 0.00 | 0.00 | 0.00 | 69 | 1019.0 |
| 20260507192905 | 53 | 235 | 0.9 | 5.2 | 0.00 | 0.00 | 0.00 | 69 | 1019.1 |
| 20260507192600 | 53 | 251 | 0.9 | 3.5 | 0.00 | 0.00 | 0.00 | 70 | 1018.9 |
| 20260507192447 | 53 | 236 | 0.9 | 4.3 | 0.00 | 0.00 | 0.00 | 70 | 1018.9 |
| 20260507191359 | 53 | 233 | 0.9 | 3.5 | 0.00 | 0.00 | 0.00 | 70 | 1018.9 |
| 20260507190857 | 53 | 240 | 0.9 | 3.5 | 0.00 | 0.00 | 0.00 | 70 | 1018.8 |
| 20260507190354 | 53 | 240 | 0.9 | 3.5 | 0.00 | 0.00 | 0.00 | 70 | 1018.6 |
| 20260507190337 | 53 | 237 | 0.9 | 2.6 | 0.00 | 0.00 | 0.00 | 70 | 1018.6 |
| 20260507185351 | 53 | 237 | 0.9 | 3.5 | 0.00 | 0.00 | 0.00 | 69 | 1018.5 |
| 20260507184848 | 54 | 237 | 0.9 | 4.3 | 0.00 | 0.00 | 0.00 | 69 | 1018.4 |
| 20260507184618 | 54 | 237 | 0.9 | 4.3 | 0.00 | 0.00 | 0.00 | 69 | 1018.2 |
| 20260507183840 | 54 | 227 | 0.9 | 3.5 | 0.00 | 0.00 | 0.00 | 69 | 1018.3 |
| 20260507183339 | 54 | 226 | 0.9 | 3.5 | 0.00 | 0.00 | 0.00 | 70 | 1018.2 |
| 20260507182837 | 54 | 231 | 0.9 | 4.3 | 0.00 | 0.00 | 0.00 | 70 | 1018.1 |
| 20260507182339 | 54 | 232 | 0.9 | 4.3 | 0.00 | 0.00 | 0.00 | 69 | 1018.2 |
| 20260507181830 | 54 | 245 | 0.9 | 5.2 | 0.00 | 0.00 | 0.00 | 69 | 1018.2 |
| 20260507181341 | 54 | 245 | 0.9 | 5.2 | 0.00 | 0.00 | 0.00 | 68 | 1018.1 |
| 20260507181049 | 54 | 257 | 0.0 | 2.6 | 0.00 | 0.00 | 0.00 | 69 | 1018.0 |
| 20260507180326 | 55 | 257 | 0.9 | 2.6 | 0.00 | 0.00 | 0.00 | 68 | 1018.0 |
| 20260507175826 | 55 | 257 | 0.9 | 4.3 | 0.00 | 0.00 | 0.00 | 69 | 1017.8 |
| 20260507175549 | 55 | 257 | 0.9 | 4.3 | 0.00 | 0.00 | 0.00 | 68 | 1017.8 |
| 20260507174822 | 55 | 235 | 0.9 | 1.7 | 0.00 | 0.00 | 0.00 | 68 | 1017.6 |
| 20260507174321 | 55 | 235 | 0.9 | 2.6 | 0.00 | 0.00 | 0.00 | 67 | 1017.8 |
| 20260507173816 | 55 | 237 | 0.9 | 2.6 | 0.00 | 0.00 | 0.00 | 68 | 1017.7 |
| 20260507173535 | 55 | 237 | 0.9 | 2.6 | 0.00 | 0.00 | 0.00 | 67 | 1017.7 |
| 20260507172816 | 55 | 237 | 0.9 | 4.3 | 0.00 | 0.00 | 0.00 | 67 | 1017.6 |
| 20260507172331 | 56 | 237 | 0.9 | 4.3 | 0.00 | 0.00 | 0.00 | 66 | 1017.7 |
| 20260507171750 | 56 | 245 | 0.0 | 1.7 | 0.00 | 0.00 | 0.00 | 66 | 1017.8 |
| 20260507171226 | 56 | 245 | 0.0 | 1.7 | 0.00 | 0.00 | 0.00 | 67 | 1017.5 |
| 20260507170922 | 56 | 245 | 0.9 | 4.3 | 0.00 | 0.00 | 0.00 | 66 | 1017.6 |
| 20260507170134 | 56 | 245 | 0.9 | 4.3 | 0.00 | 0.00 | 0.00 | 66 | 1017.5 |
| 20260507165610 | 56 | 242 | 0.0 | 2.6 | 0.00 | 0.00 | 0.00 | 65 | 1017.5 |
| 20260507165306 | 56 | 242 | 0.0 | 2.6 | 0.00 | 0.00 | 0.00 | 65 | 1017.6 |
| 20260507164516 | 57 | 242 | 0.9 | 2.6 | 0.00 | 0.00 | 0.00 | 65 | 1017.6 |
| 20260507163950 | 57 | 242 | 0.0 | 3.5 | 0.00 | 0.00 | 0.00 | 65 | 1017.5 |
| 20260507163425 | 57 | 242 | 0.0 | 3.5 | 0.00 | 0.00 | 0.00 | 65 | 1017.6 |
| 20260507163137 | 57 | 242 | 0.9 | 3.5 | 0.00 | 0.00 | 0.00 | 65 | 1017.3 |
| 20260507162411 | 57 | 242 | 0.9 | 3.5 | 0.00 | 0.00 | 0.00 | 63 | 1017.5 |
| 20260507162130 | 58 | 242 | 0.9 | 3.5 | 0.00 | 0.00 | 0.00 | 63 | 1017.4 |
| 20260507161406 | 58 | 242 | 0.9 | 3.5 | 0.00 | 0.00 | 0.00 | 63 | 1017.3 |
| 20260507160906 | 58 | 242 | 0.0 | 2.6 | 0.00 | 0.00 | 0.00 | 63 | 1017.5 |
| 20260507160404 | 58 | 242 | 0.9 | 2.6 | 0.00 | 0.00 | 0.00 | 63 | 1017.4 |
| 20260507155904 | 58 | 242 | 0.9 | 2.6 | 0.00 | 0.00 | 0.00 | 61 | 1017.4 |
| 20260507155400 | 58 | 242 | 0.0 | 1.7 | 0.00 | 0.00 | 0.00 | 62 | 1017.4 |
| 20260507154859 | 59 | 242 | 0.0 | 2.6 | 0.00 | 0.00 | 0.00 | 60 | 1017.3 |
| 20260507154352 | 59 | 242 | 0.9 | 5.2 | 0.00 | 0.00 | 0.00 | 60 | 1017.4 |
| 20260507153851 | 59 | 242 | 0.9 | 5.2 | 0.00 | 0.00 | 0.00 | 60 | 1017.4 |
| 20260507153349 | 59 | 255 | 0.9 | 5.2 | 0.00 | 0.00 | 0.00 | 60 | 1017.4 |
| 20260507153331 | 59 | 255 | 0.9 | 5.2 | 0.00 | 0.00 | 0.00 | 60 | 1017.2 |
| 20260507152346 | 59 | 222 | 1.7 | 4.3 | 0.00 | 0.00 | 0.00 | 59 | 1017.4 |
| 20260507151848 | 59 | 224 | 1.7 | 7.8 | 0.00 | 0.00 | 0.00 | 59 | 1017.2 |
| 20260507151558 | 60 | 237 | 1.7 | 7.8 | 0.00 | 0.00 | 0.00 | 58 | 1017.2 |
| 20260507150833 | 60 | 231 | 0.9 | 4.3 | 0.00 | 0.00 | 0.00 | 58 | 1017.2 |
| 20260507150552 | 60 | 204 | 0.9 | 3.5 | 0.00 | 0.00 | 0.00 | 58 | 1017.1 |
| 20260507145823 | 60 | 204 | 0.9 | 3.5 | 0.00 | 0.00 | 0.00 | 57 | 1017.2 |
| 20260507145541 | 60 | 204 | 0.9 | 3.5 | 0.00 | 0.00 | 0.00 | 57 | 1017.1 |
| 20260507144820 | 60 | 238 | 0.9 | 3.5 | 0.00 | 0.00 | 0.00 | 57 | 1017.0 |
| 20260507144318 | 60 | 238 | 0.9 | 4.3 | 0.00 | 0.00 | 0.00 | 56 | 1017.2 |
| 20260507144042 | 61 | 243 | 0.9 | 4.3 | 0.00 | 0.00 | 0.00 | 57 | 1017.0 |
| 20260507143317 | 61 | 266 | 0.9 | 4.3 | 0.00 | 0.00 | 0.00 | 57 | 1016.8 |
| 20260507142812 | 61 | 245 | 0.9 | 4.3 | 0.00 | 0.00 | 0.00 | 56 | 1017.1 |
| 20260507142532 | 61 | 248 | 1.7 | 5.2 | 0.00 | 0.00 | 0.00 | 56 | 1017.0 |
| 20260507141810 | 61 | 236 | 1.7 | 5.2 | 0.00 | 0.00 | 0.00 | 55 | 1017.1 |
| 20260507141311 | 61 | 200 | 0.9 | 4.3 | 0.00 | 0.00 | 0.00 | 55 | 1017.2 |
| 20260507140744 | 61 | 200 | 1.7 | 4.3 | 0.00 | 0.00 | 0.00 | 54 | 1017.3 |
| 20260507140219 | 62 | 165 | 0.9 | 3.5 | 0.00 | 0.00 | 0.00 | 53 | 1017.2 |
| 20260507135342 | 62 | 193 | 0.9 | 4.3 | 0.00 | 0.00 | 0.00 | 53 | 1017.3 |
| 20260507134556 | 62 | 193 | 0.9 | 4.3 | 0.00 | 0.00 | 0.00 | 52 | 1017.2 |
| 20260507134044 | 62 | 193 | 0.9 | 4.3 | 0.00 | 0.00 | 0.00 | 52 | 1017.3 |
| 20260507133545 | 62 | 193 | 1.7 | 5.2 | 0.00 | 0.00 | 0.00 | 52 | 1017.2 |
| 20260507133018 | 62 | 210 | 1.7 | 5.2 | 0.00 | 0.00 | 0.00 | 52 | 1017.3 |
| 20260507132452 | 62 | 195 | 1.7 | 4.3 | 0.00 | 0.00 | 0.00 | 53 | 1017.2 |
| 20260507131928 | 62 | 229 | 0.9 | 4.3 | 0.00 | 0.00 | 0.00 | 53 | 1017.2 |
| 20260507131626 | 62 | 284 | 0.9 | 2.6 | 0.00 | 0.00 | 0.00 | 53 | 1017.3 |
| 20260507130832 | 63 | 288 | 0.9 | 2.6 | 0.00 | 0.00 | 0.00 | 54 | 1017.2 |
| 20260507130309 | 63 | 296 | 0.9 | 6.1 | 0.00 | 0.00 | 0.00 | 54 | 1017.2 |
| 20260507125743 | 63 | 257 | 0.9 | 6.1 | 0.00 | 0.00 | 0.00 | 54 | 1017.1 |
| 20260507125214 | 63 | 237 | 0.9 | 2.6 | 0.00 | 0.00 | 0.00 | 54 | 1017.1 |
| 20260507124649 | 64 | 237 | 0.9 | 3.5 | 0.00 | 0.00 | 0.00 | 54 | 1017.2 |
| 20260507124346 | 64 | 236 | 0.9 | 3.5 | 0.00 | 0.00 | 0.00 | 53 | 1017.2 |
| 20260507124038 | 64 | 252 | 0.9 | 4.3 | 0.00 | 0.00 | 0.00 | 53 | 1017.1 |
| 20260507123536 | 64 | 252 | 0.9 | 4.3 | 0.00 | 0.00 | 0.00 | 53 | 1017.0 |
| 20260507122502 | 64 | 257 | 0.9 | 3.5 | 0.00 | 0.00 | 0.00 | 53 | 1017.1 |
| 20260507121935 | 64 | 299 | 0.9 | 4.3 | 0.00 | 0.00 | 0.00 | 53 | 1017.0 |
| 20260507121409 | 64 | 333 | 0.9 | 4.3 | 0.00 | 0.00 | 0.00 | 52 | 1017.0 |
| 20260507120847 | 64 | 354 | 0.9 | 3.5 | 0.00 | 0.00 | 0.00 | 53 | 1017.0 |
| 20260507120543 | 64 | 319 | 0.9 | 4.3 | 0.00 | 0.00 | 0.00 | 52 | 1016.9 |
| 20260507115757 | 64 | 243 | 0.9 | 4.3 | 0.00 | 0.00 | 0.00 | 52 | 1016.9 |
| 20260507115227 | 64 | 300 | 0.9 | 2.6 | 0.00 | 0.00 | 0.00 | 53 | 1016.7 |
| 20260507114705 | 64 | 300 | 0.9 | 8.7 | 0.00 | 0.00 | 0.00 | 53 | 1016.7 |
| 20260507114206 | 64 | 306 | 0.9 | 8.7 | 0.00 | 0.00 | 0.00 | 53 | 1016.8 |
| 20260507113705 | 64 | 299 | 0.9 | 2.6 | 0.00 | 0.00 | 0.00 | 53 | 1016.8 |
| 20260507113202 | 64 | 299 | 0.9 | 6.1 | 0.00 | 0.00 | 0.00 | 53 | 1016.8 |
| 20260507112656 | 64 | 311 | 0.9 | 6.1 | 0.00 | 0.00 | 0.00 | 53 | 1016.7 |
| 20260507112154 | 64 | 322 | 0.0 | 2.6 | 0.00 | 0.00 | 0.00 | 54 | 1016.7 |
| 20260507111651 | 65 | 323 | 0.0 | 0.9 | 0.00 | 0.00 | 0.00 | 54 | 1016.7 |
| 20260507111428 | 65 | 323 | 0.0 | 2.6 | 0.00 | 0.00 | 0.00 | 53 | 1016.7 |
| 20260507110650 | 65 | 323 | 0.0 | 2.6 | 0.00 | 0.00 | 0.00 | 53 | 1016.7 |
| 20260507110144 | 65 | 319 | 0.9 | 4.3 | 0.00 | 0.00 | 0.00 | 53 | 1016.5 |
| 20260507105904 | 65 | 319 | 0.9 | 4.3 | 0.00 | 0.00 | 0.00 | 53 | 1016.3 |
| 20260507105140 | 65 | 252 | 0.0 | 1.7 | 0.00 | 0.00 | 0.00 | 54 | 1016.5 |
| 20260507104909 | 65 | 252 | 0.0 | 1.7 | 0.00 | 0.00 | 0.00 | 52 | 1016.3 |
| 20260507104408 | 65 | 252 | 0.9 | 2.6 | 0.00 | 0.00 | 0.00 | 51 | 1016.3 |
| 20260507103634 | 66 | 252 | 0.9 | 2.6 | 0.00 | 0.00 | 0.00 | 51 | 1016.2 |
| 20260507103134 | 66 | 318 | 0.9 | 7.0 | 0.00 | 0.00 | 0.00 | 51 | 1016.0 |
| 20260507102634 | 66 | 315 | 0.9 | 7.0 | 0.00 | 0.00 | 0.00 | 52 | 1015.8 |
| 20260507102132 | 66 | 249 | 0.9 | 7.0 | 0.00 | 0.00 | 0.00 | 52 | 1015.8 |
| 20260507101631 | 66 | 248 | 0.9 | 7.0 | 0.00 | 0.00 | 0.00 | 51 | 1015.8 |
| 20260507101132 | 67 | 322 | 0.0 | 2.6 | 0.00 | 0.00 | 0.00 | 52 | 1015.8 |
| 20260507100628 | 67 | 322 | 0.0 | 2.6 | 0.00 | 0.00 | 0.00 | 51 | 1015.8 |
| 20260507100126 | 67 | 322 | 0.0 | 2.6 | 0.00 | 0.00 | 0.00 | 50 | 1015.7 |
| 20260507095622 | 67 | 322 | 0.9 | 2.6 | 0.00 | 0.00 | 0.00 | 50 | 1015.6 |
| 20260507095120 | 67 | 322 | 0.9 | 1.7 | 0.00 | 0.00 | 0.00 | 50 | 1015.4 |
| 20260507094619 | 68 | 322 | 0.0 | 3.5 | 0.00 | 0.00 | 0.00 | 50 | 1015.4 |
| 20260507094120 | 68 | 322 | 0.0 | 3.5 | 0.00 | 0.00 | 0.00 | 49 | 1015.5 |
| 20260507093621 | 68 | 313 | 0.9 | 3.5 | 0.00 | 0.00 | 0.00 | 48 | 1015.5 |
| 20260507093054 | 68 | 313 | 1.7 | 5.2 | 0.00 | 0.00 | 0.00 | 47 | 1015.5 |
| 20260507092553 | 68 | 294 | 0.9 | 5.2 | 0.00 | 0.00 | 0.00 | 47 | 1015.4 |
| 20260507092050 | 69 | 217 | 0.0 | 2.6 | 0.00 | 0.00 | 0.00 | 47 | 1015.4 |
| 20260507091548 | 69 | 216 | 0.0 | 0.9 | 0.00 | 0.00 | 0.00 | 47 | 1015.4 |
| 20260507091048 | 69 | 216 | 0.0 | 2.6 | 0.00 | 0.00 | 0.00 | 46 | 1015.4 |
| 20260507090559 | 70 | 216 | 0.0 | 2.6 | 0.00 | 0.00 | 0.00 | 45 | 1015.2 |
| 20260507090056 | 70 | 216 | 0.9 | 2.6 | 0.00 | 0.00 | 0.00 | 45 | 1015.2 |
| 20260507085542 | 70 | 216 | 0.9 | 3.5 | 0.00 | 0.00 | 0.00 | 46 | 1015.1 |
| 20260507085040 | 70 | 252 | 0.9 | 3.5 | 0.00 | 0.00 | 0.00 | 45 | 1015.0 |
| 20260507084538 | 70 | 291 | 0.9 | 2.6 | 0.00 | 0.00 | 0.00 | 44 | 1015.0 |
| 20260507084037 | 71 | 260 | 0.9 | 2.6 | 0.00 | 0.00 | 0.00 | 44 | 1014.9 |
| 20260507083534 | 71 | 272 | 0.9 | 3.5 | 0.00 | 0.00 | 0.00 | 44 | 1014.9 |
| 20260507083027 | 71 | 314 | 0.9 | 3.5 | 0.00 | 0.00 | 0.00 | 43 | 1014.9 |
| 20260507082526 | 71 | 220 | 0.9 | 6.1 | 0.00 | 0.00 | 0.00 | 43 | 1014.8 |
| 20260507082024 | 71 | 284 | 1.7 | 6.1 | 0.00 | 0.00 | 0.00 | 44 | 1014.7 |
| 20260507081525 | 71 | 331 | 0.9 | 4.3 | 0.00 | 0.00 | 0.00 | 43 | 1014.5 |
| 20260507081004 | 72 | 288 | 0.9 | 2.6 | 0.00 | 0.00 | 0.00 | 42 | 1014.4 |
| 20260507080505 | 72 | 267 | 0.9 | 2.6 | 0.00 | 0.00 | 0.00 | 43 | 1014.3 |
| 20260507075942 | 72 | 267 | 0.9 | 1.7 | 0.00 | 0.00 | 0.00 | 42 | 1014.3 |
| 20260507075440 | 72 | 267 | 0.9 | 7.0 | 0.00 | 0.00 | 0.00 | 42 | 1014.3 |
| 20260507074940 | 72 | 268 | 0.9 | 7.0 | 0.00 | 0.00 | 0.00 | 41 | 1014.3 |
| 20260507074436 | 72 | 26 | 0.9 | 6.1 | 0.00 | 0.00 | 0.00 | 42 | 1014.3 |
| 20260507073935 | 73 | 270 | 1.7 | 6.1 | 0.00 | 0.00 | 0.00 | 42 | 1014.2 |
| 20260507073441 | 73 | 258 | 0.9 | 7.0 | 0.00 | 0.00 | 0.00 | 44 | 1014.0 |
| 20260507072933 | 73 | 208 | 0.9 | 7.0 | 0.00 | 0.00 | 0.00 | 45 | 1014.0 |
| 20260507072433 | 73 | 308 | 0.0 | 1.7 | 0.00 | 0.00 | 0.00 | 45 | 1013.9 |
| 20260507071927 | 73 | 308 | 0.0 | 1.7 | 0.00 | 0.00 | 0.00 | 45 | 1013.8 |
| 20260507071643 | 74 | 308 | 0.0 | 1.7 | 0.00 | 0.00 | 0.00 | 45 | 1013.7 |
| 20260507070922 | 74 | 308 | 0.9 | 6.1 | 0.00 | 0.00 | 0.00 | 44 | 1013.5 |
| 20260507070643 | 74 | 308 | 1.7 | 6.1 | 0.00 | 0.00 | 0.00 | 44 | 1013.5 |
| 20260507065919 | 74 | 333 | 1.7 | 8.7 | 0.00 | 0.00 | 0.00 | 45 | 1013.4 |
| 20260507065642 | 74 | 303 | 2.6 | 8.7 | 0.00 | 0.00 | 0.00 | 44 | 1013.2 |
| 20260507064922 | 74 | 313 | 1.7 | 6.1 | 0.00 | 0.00 | 0.00 | 45 | 1013.3 |
| 20260507064402 | 75 | 306 | 1.7 | 6.1 | 0.00 | 0.00 | 0.00 | 44 | 1013.4 |
| 20260507064123 | 75 | 317 | 1.7 | 7.0 | 0.00 | 0.00 | 0.00 | 44 | 1013.4 |